Location: Les Ormes
(46.9748°N, 0.6048°E)
Time: 05:16:44
(UTC+00:00)

Daily predictions for brighter satellites

Satellite Brightness Start Highest point End
(mag) Time Altitude Azimuth Time Altitude Azimuth Time Altitude Azimuth
ACS3 Solar Sail 4.2 02:23:02 10° NNE 02:24:02 14° NE 02:24:02 14° NE
CZ-2C R/B 4.4 03:18:29 10° NE 03:21:32 26° ENE 03:21:32 26° ENE
USA 267 4.0 03:24:51 10° ENE 03:31:02 43° SE 03:31:27 43° SE
Cosmos 2278 Rocket 4.4 03:37:43 16° SSE 03:37:43 16° SSE 03:38:44 10° SSE
NOSS 3-1 (A) 4.5 03:37:26 33° NE 03:37:26 33° NE 03:40:40 10° NE
Cosmos 2237 Rocket 3.2 03:37:34 43° ENE 03:37:34 43° ENE 03:41:42 10° NE
ARGOS 4.2 03:36:29 10° NNE 03:40:21 41° NE 03:40:21 41° NE
CENTAUR R/B 4.2 03:39:59 27° NNW 03:43:28 38° NNE 03:51:48 10° E
Cosmos 2369 Rocket 4.4 03:41:31 15° N 03:44:23 20° NE 03:48:34 10° E
SJ 16-02 3.3 03:51:39 26° ENE 03:51:39 26° ENE 03:54:53 10° ESE
ADEOS Rocket 3.8 03:50:51 10° N 03:55:46 49° NNW 03:55:46 49° NNW
USA 234 3.5 04:01:46 10° ESE 04:08:14 64° NNE 04:09:48 50° NNW
ACS3 Solar Sail 3.1 04:05:39 10° N 04:08:08 25° N 04:08:08 25° N
Cosmos 371 Rocket 4.4 04:11:29 32° NNE 04:13:01 41° ENE 04:17:34 10° SE
CZ-3 R/B 4.2 04:06:00 17° SW 04:14:44 26° S 04:21:25 10° SE
Cosmos 1864 Rocket 4.3 04:10:23 10° N 04:16:42 78° W 04:23:01 10° S
Cosmos 2292 Rocket 4.2 04:16:36 44° S 04:18:20 77° E 04:24:41 10° N
Meteor 1-24 Rocket 4.2 04:23:19 44° N 04:23:19 44° N 04:27:06 10° N
Gbstr 26 Del rocket 3.9 04:22:01 51° N 04:22:01 51° N 04:27:25 10° ENE
Lacrosse 5 rocket 3.5 04:23:30 15° NE 04:23:30 15° NE 04:24:39 10° NE
Cosmos 2061 Rocket 4.2 04:16:22 10° N 04:22:33 68° E 04:28:42 10° SSE
Cosmos 1656 Rocket 4.2 04:20:09 29° N 04:22:54 57° ENE 04:28:28 10° SE
Cosmos 2219 Rocket 4.3 04:26:24 13° N 04:26:24 13° N 04:27:35 10° N
Cosmos 1725 Rocket 3.9 04:24:37 10° NNW 04:30:55 68° W 04:37:08 10° S
Cosmos 1869 4.3 04:31:06 39° ENE 04:31:06 39° ENE 04:34:24 10° SSE
Cosmos 2233 Rocket 3.9 04:26:51 10° N 04:33:12 89° E 04:39:26 10° S
Meteor 2-21 Rocket 4.4 04:36:39 56° W 04:37:13 58° WNW 04:43:12 10° N
NOSS 3-1 (C) 4.3 04:37:44 27° NNW 04:37:44 27° NNW 04:42:26 10° NNE
Helios 1A Rocket 4.3 04:34:24 10° SE 04:37:22 29° ENE 04:38:59 20° NNE
Cosmos 2251 Rocket 3.4 04:36:55 67° WNW 04:37:23 71° WSW 04:42:41 10° SSE
Cosmos 1420 Rocket 3.9 04:37:58 55° SW 04:39:06 79° WNW 04:44:26 10° NNE
Cosmos 1624 Rocket 4.3 04:34:11 10° S 04:39:17 64° ESE 04:44:25 10° NNE
SL-16 R/B 3.1 04:34:09 10° S 04:39:34 49° ESE 04:45:02 10° NE
PAYLOAD A 4.0 04:38:37 10° N 04:43:57 67° WNW 04:45:44 41° SW
SL-08 RB Rocket 4.3 04:40:53 10° N 04:44:00 41° NNW 04:44:00 41° NNW
Cosmos 1812 3.7 04:46:27 32° ENE 04:46:34 33° ENE 04:49:14 10° SE
NOSS 0 Rocket 4.4 04:48:18 39° NW 04:48:18 39° NW 04:54:02 10° NNE
SL-08 R/B 4.4 04:45:46 10° NNW 04:51:47 58° W 04:57:51 10° S
Cosmos 1802 Rocket 4.3 04:46:26 10° NNW 04:52:20 43° W 04:58:08 10° SSW
CZ-2C R/B 2.9 04:56:21 10° N 05:00:45 39° WNW 05:00:45 39° WNW
Cosmos 1939 Rocket 3.4 04:58:27 10° N 05:01:05 38° NNW 05:01:05 38° NNW
COSMOS 2428 4.1 05:03:07 20° NNW 05:03:07 20° NNW 05:06:33 10° N
Meteor 2-5 Rocket 4.2 05:02:07 37° WNW 05:02:22 37° WNW 05:07:44 10° N
Cosmos 1980 4.2 05:04:29 35° WNW 05:04:56 35° NW 05:10:08 10° NNE
SJ-11-01 4.1 05:02:44 10° N 05:07:26 78° WNW 05:12:07 10° SSW
USA 229 DEB 3.9 05:05:02 10° SSW 05:10:48 63° ESE 05:17:18 10° NE
USA 229 3.9 05:05:16 10° SSW 05:11:01 62° ESE 05:17:31 10° NE
USA 267 3.2 05:07:47 10° NE 05:14:17 70° NNW 05:18:49 21° WSW
Cosmos 1190 Rocket 4.4 05:14:41 31° WNW 05:16:16 39° WSW 05:21:04 10° S
Cosmos 2278 Rocket 4.2 05:19:38 10° SW 05:19:38 10° SW 05:19:46 10° SW
Cosmos 676 Rocket 4.0 05:14:56 18° NNW 05:18:45 60° WSW 05:23:49 10° S
Cosmos 2237 Rocket 3.0 05:19:25 28° WNW 05:20:32 30° NW 05:25:29 10° NNE
ARGOS 4.1 05:17:18 10° N 05:21:42 26° WNW 05:21:49 26° WNW
Cosmos 2297 3.7 05:18:01 10° NNW 05:23:42 83° ENE 05:29:20 10° SSE
Okean 2 Rocket 3.9 05:19:43 10° N 05:24:00 52° ENE 05:28:16 10° SSE
Aureole 3 4.1 05:19:05 10° SSW 05:24:54 59° WNW 05:29:46 10° N
NOSS 3-1 (A) 4.1 05:24:50 24° WNW 05:26:28 28° NNW 05:31:41 10° NNE
Cosmos 2056 Rocket 3.7 05:22:48 10° SW 05:28:04 51° WNW 05:33:20 10° NNE
Cosmos 2369 Rocket 2.2 05:23:27 10° NNW 05:29:10 88° WSW 05:34:53 10° SSE
SJ 16-02 1.9 05:28:15 28° WNW 05:29:26 34° WSW 05:33:17 10° SSW
SKYMED 2 3.6 05:25:32 10° S 05:29:47 56° W 05:34:04 10° NNW
Cosmos 1943 4.4 05:25:13 10° S 05:30:29 45° ESE 05:35:49 10° NE
Cosmos 1513 Rocket 4.5 05:25:05 10° N 05:31:30 79° W 05:37:47 10° S
ATLAS 3B R/B 3.0 05:24:32 10° SW 05:32:05 87° SE 05:40:00 10° NE
COSMO-SKYMED 1 2.3 05:30:59 10° S 05:35:05 67° WSW 05:39:12 10° NNW
CENTAUR R/B 3.3 05:27:05 11° NW 05:35:07 88° SW 05:44:35 10° SE
IRS-1D 3.5 05:33:49 10° N 05:38:38 52° WNW 05:43:23 10° SW
USA 306 3.1 05:41:01 26° WNW 05:42:15 36° NNW 05:45:51 10° NE
BREEZE-M DEB (TANK) 3.4 05:40:40 10° SW 05:43:02 35° SSE 05:47:04 10° E
BREEZE-M DEB (TANK) 4.1 05:34:53 16° W 05:43:51 82° S 05:47:49 10° E
Cosmos 1025 Rocket 3.4 05:39:59 10° S 05:44:18 70° E 05:48:39 10° NNE
Cosmos 1674 Rocket 3.5 05:44:56 10° SSW 05:49:21 76° W 05:53:47 10° N
USA 234 3.6 05:45:04 10° SSE 05:51:23 50° SW 05:57:09 13° WNW
Cosmos 968 Rocket 3.5 05:46:15 10° NNW 05:51:26 63° WSW 05:56:36 10° S
Cosmos 371 Rocket 4.3 05:50:01 15° NW 05:53:01 26° W 05:57:00 10° SSW
Cosmos 1741 Rocket 4.0 05:49:10 10° NNW 05:54:30 79° WSW 05:59:47 10° SSE
Meteor 1-21 Rocket 4.4 05:50:39 10° SSW 05:56:13 52° WNW 06:01:44 10° N
CZ-4 R/B 4.3 05:53:23 10° N 05:57:52 38° WNW 06:02:14 10° SW
Cosmos 1400 Rocket 2.9 05:55:01 10° NNW 05:58:33 43° W 06:02:01 10° SSW
Cosmos 2221 Rocket 3.6 05:55:01 10° S 05:59:32 90° E 06:04:06 10° N
Cosmos 1484 Rocket 2.4 05:56:10 10° N 05:59:42 71° WNW 06:03:11 10° SSW
Lacrosse 5 rocket 1.4 05:57:09 13° NW 05:59:59 49° NNE 06:03:12 10° ESE
Lacrosse 4 Rocket 2.6 05:58:57 10° NNW 06:02:39 35° NE 06:06:16 10° ESE
Cosmos 1110 Rocket 4.0 05:58:34 10° SSW 06:03:49 64° WNW 06:09:07 10° NNE
Cosmos 2151 Rocket 3.9 06:02:05 10° NNW 06:06:22 45° W 06:10:36 10° SSW
Cosmos 1455 Rocket 3.7 06:02:28 10° N 06:06:46 58° ENE 06:11:03 10° SSE
Thor Agena Rocket 4.0 06:03:33 10° NNE 06:08:45 68° ESE 06:13:50 10° S
Gbstr 26 Del rocket 4.0 06:04:03 12° WNW 06:08:53 64° NNE 06:15:21 10° E
Helios 1A Rocket 3.9 06:07:42 10° SW 06:10:06 18° W 06:12:30 10° NW
Meteor 2-17 Rocket 4.4 06:04:25 10° SSW 06:10:27 70° W 06:16:35 10° N
Sich 1 Rocket 3.7 06:09:13 10° NNW 06:13:41 59° W 06:18:05 10° S
Cosmos 1818 4.5 06:09:01 10° SSW 06:14:17 55° ESE 06:19:36 10° NE
Cosmos 1378 Rocket 4.3 06:13:31 10° SW 06:17:13 28° WNW 06:20:57 10° NNW
Cosmos 1812 4.1 06:18:19 10° WNW 06:18:42 10° W 06:19:14 10° W
Cosmos 332 Rocket 4.1 06:17:23 10° NNW 06:21:59 47° WSW 06:26:32 10° S
SL-16 R/B 2.9 06:18:48 10° WSW 06:23:52 32° NW 06:28:58 10° NNE
Okean 1 Rocket 3.3 06:19:54 10° NNW 06:24:02 45° W 06:28:07 10° SSW
NOSS 2-2 (C) 3.9 06:26:10 10° NW 06:30:05 56° SW 06:35:31 10° SSE
Cosmos 1464 Rocket 4.4 06:24:35 10° NNW 06:30:16 41° W 06:35:54 10° SSW
Cosmos 1634 Rocket 4.2 06:25:28 10° N 06:31:41 80° E 06:37:50 10° SSE
